Oak Ridge, TN

8:32 AM EST on December 11, 2017 (GMT -0500)
Oak Ridge

Weather History for KOQT - November, 2012

Change the Weather History Date:

Wednesday, November 21, 2012

  Actual Average (KTYS) Record (KTYS)
Temperature  
Mean Temperature 54 °F -  
Max Temperature 66 °F 54 °F 76 °F (1883)
Min Temperature 41 °F 37 °F 15 °F (1887)
Degree Days  
Heating Degree Days 12    
Growing Degree Days 4 (Base 50)    
Moisture  
Dew Point 41 °F    
Average Humidity 68    
Maximum Humidity 90    
Minimum Humidity 37    
Precipitation  
Precipitation 0.00 in - - ()
Sea Level Pressure  
Sea Level Pressure 30.18 in    
Wind  
Wind Speed 1 mph (East)    
Max Wind Speed 6 mph    
Max Gust Speed -    
Visibility 10 miles    
Events      
Averages and records for this station are not official NWS values.
T = Trace of Precipitation, MM = Missing Value Source: NWS Daily Summary

Daily Weather History Graph

Daily Weather History Graph

Search for Another Location

Airport or City:

Trip Planner

Search our weather history database for the weather conditions in past years. The results will help you decide how hot, cold, wet, or windy it might be!

Date:

Astronomy

Nov. 21, 2012 Rise Set
Actual Time 7:19 AM EST 5:25 PM EST
Civil Twilight 6:52 AM EST 5:53 PM EST
Nautical Twilight 6:20 AM EST 6:24 PM EST
Astronomical Twilight 5:50 AM EST 6:55 PM EST
Moon 1:31 PM EST (11/21) 12:49 AM EST (11/21)
Length of Visible Light 11h 01m
Length of Day
10h 05m
First Quarter, 61% of the Moon is Illuminated
Nov 21
First Quarter
Nov 28
Full
Dec 6
Last Quarter
Dec 13
New
Dec 20
First Quarter

Hourly Weather History & Observations

Time (EST) Temp. Dew Point Humidity Pressure Visibility Wind Dir Wind Speed Gust Speed Precip Events Conditions
12:53 AM 50.0 °F 42.1 °F 74% 30.12 in 10.0 mi Calm Calm - N/A   Mostly Cloudy
1:53 AM 48.9 °F 43.0 °F 80% 30.12 in 10.0 mi Calm Calm - N/A   Overcast
2:53 AM 48.0 °F 42.1 °F 80% 30.12 in 10.0 mi Calm Calm - N/A   Scattered Clouds
3:53 AM 45.0 °F 39.9 °F 82% 30.12 in 10.0 mi Calm Calm - N/A   Clear
4:53 AM 42.1 °F 39.0 °F 89% 30.13 in 10.0 mi Calm Calm - N/A   Clear
5:53 AM 42.1 °F 39.0 °F 89% 30.16 in 10.0 mi Calm Calm - N/A   Clear
6:53 AM 41.0 °F 37.9 °F 89% 30.18 in 10.0 mi Calm Calm - N/A   Clear
7:53 AM 43.0 °F 39.9 °F 89% 30.20 in 10.0 mi Calm Calm - N/A   Overcast
8:53 AM 45.0 °F 42.1 °F 90% 30.21 in 10.0 mi Calm Calm - N/A   Mostly Cloudy
9:53 AM 51.1 °F 44.1 °F 77% 30.21 in 10.0 mi Calm Calm - N/A   Clear
10:53 AM 59.0 °F 42.1 °F 53% 30.20 in 10.0 mi Calm Calm - N/A   Clear
11:53 AM 64.0 °F 39.9 °F 41% 30.19 in 10.0 mi Variable 4.6 mph - N/A   Clear
12:53 PM 66.0 °F 41.0 °F 40% 30.17 in 10.0 mi Variable 5.8 mph - N/A   Clear
1:53 PM 66.0 °F 41.0 °F 40% 30.16 in 10.0 mi ESE 4.6 mph - N/A   Clear
2:53 PM 66.9 °F 39.9 °F 37% 30.14 in 10.0 mi NE 5.8 mph - N/A   Partly Cloudy
3:53 PM 66.9 °F 39.9 °F 37% 30.15 in 10.0 mi ENE 3.5 mph - N/A   Partly Cloudy
4:53 PM 64.9 °F 39.9 °F 40% 30.17 in 10.0 mi Calm Calm - N/A   Clear
5:53 PM 59.0 °F 42.1 °F 53% 30.18 in 10.0 mi Calm Calm - N/A   Scattered Clouds
6:53 PM 54.0 °F 42.1 °F 64% 30.20 in 10.0 mi Calm Calm - N/A   Clear
7:53 PM 51.1 °F 41.0 °F 68% 30.22 in 10.0 mi Calm Calm - N/A   Clear
8:53 PM 48.0 °F 39.9 °F 74% 30.22 in 10.0 mi Calm Calm - N/A   Clear
9:53 PM 46.0 °F 39.9 °F 79% 30.22 in 10.0 mi Calm Calm - N/A   Clear
10:53 PM 44.1 °F 37.9 °F 79% 30.22 in 10.0 mi Calm Calm - N/A   Clear
11:53 PM 42.1 °F 37.9 °F 85% 30.20 in 10.0 mi Calm Calm - N/A   Clear